Year,Month,Day,Hour,Minute,Value (Times are PST for temperature in C)
2012,07,14,00,00,16.80
2012,07,14,00,01,16.80
2012,07,14,00,02,16.80
2012,07,14,00,03,16.80
2012,07,14,00,04,16.80
2012,07,14,00,05,16.80
2012,07,14,00,06,16.80
2012,07,14,00,07,16.80
2012,07,14,00,08,16.80
2012,07,14,00,09,16.80
2012,07,14,00,10,16.80
2012,07,14,00,11,16.80
2012,07,14,00,12,16.80
2012,07,14,00,13,16.70
2012,07,14,00,14,16.70
2012,07,14,00,15,16.70
2012,07,14,00,16,16.70
2012,07,14,00,17,16.70
2012,07,14,00,18,16.70
2012,07,14,00,19,16.70
2012,07,14,00,20,16.70
2012,07,14,00,21,16.70
2012,07,14,00,22,16.70
2012,07,14,00,23,16.70
2012,07,14,00,24,16.60
2012,07,14,00,25,16.60
2012,07,14,00,26,16.60
2012,07,14,00,27,16.50
2012,07,14,00,28,16.50
2012,07,14,00,29,16.40
2012,07,14,00,30,16.40
2012,07,14,00,31,16.30
2012,07,14,00,32,16.20
2012,07,14,00,33,16.20
2012,07,14,00,34,16.10
2012,07,14,00,35,16.10
2012,07,14,00,36,16.00
2012,07,14,00,37,16.00
2012,07,14,00,38,15.90
2012,07,14,00,39,15.90
2012,07,14,00,40,15.80
2012,07,14,00,41,15.80
2012,07,14,00,42,15.80
2012,07,14,00,43,15.70
2012,07,14,00,44,15.70
2012,07,14,00,45,15.60
2012,07,14,00,46,15.60
2012,07,14,00,47,15.60
2012,07,14,00,48,15.50
2012,07,14,00,49,15.50
2012,07,14,00,50,15.40
2012,07,14,00,51,15.40
2012,07,14,00,52,15.40
2012,07,14,00,53,15.40
2012,07,14,00,54,15.30
2012,07,14,00,55,15.30
2012,07,14,00,56,15.30
2012,07,14,00,57,15.30
2012,07,14,00,58,15.30
2012,07,14,00,59,15.20
2012,07,14,01,00,15.20
2012,07,14,01,01,15.20
2012,07,14,01,02,15.20
2012,07,14,01,03,15.10
2012,07,14,01,04,15.10
2012,07,14,01,05,15.10
2012,07,14,01,06,15.00
2012,07,14,01,07,15.00
2012,07,14,01,08,15.00
2012,07,14,01,09,15.00
2012,07,14,01,10,15.00
2012,07,14,01,11,15.00
2012,07,14,01,12,15.00
2012,07,14,01,13,15.00
2012,07,14,01,14,15.00
2012,07,14,01,15,15.00
2012,07,14,01,16,15.00
2012,07,14,01,17,15.00
2012,07,14,01,18,15.00
2012,07,14,01,19,15.00
2012,07,14,01,20,15.00
2012,07,14,01,21,15.00
2012,07,14,01,22,15.00
2012,07,14,01,23,15.00
2012,07,14,01,24,15.00
2012,07,14,01,25,15.00
2012,07,14,01,26,15.00
2012,07,14,01,27,15.00
2012,07,14,01,28,15.00
2012,07,14,01,29,15.00
2012,07,14,01,30,15.00
2012,07,14,01,31,15.00
2012,07,14,01,32,15.00
2012,07,14,01,33,15.00
2012,07,14,01,34,15.00
2012,07,14,01,35,15.00
2012,07,14,01,36,15.00
2012,07,14,01,37,15.00
2012,07,14,01,38,15.00
2012,07,14,01,39,15.00
2012,07,14,01,40,15.00
2012,07,14,01,41,15.00
2012,07,14,01,42,15.00
2012,07,14,01,43,15.00
2012,07,14,01,44,15.00
2012,07,14,01,45,15.00
2012,07,14,01,46,15.00
2012,07,14,01,47,15.00
2012,07,14,01,48,15.00
2012,07,14,01,49,15.00
2012,07,14,01,50,15.00
2012,07,14,01,51,15.00
2012,07,14,01,52,15.00
2012,07,14,01,53,15.00
2012,07,14,01,54,15.00
2012,07,14,01,55,15.00
2012,07,14,01,56,15.00
2012,07,14,01,57,15.00
2012,07,14,01,58,15.00
2012,07,14,01,59,15.00
2012,07,14,02,00,15.00
2012,07,14,02,01,15.00
2012,07,14,02,02,15.00
2012,07,14,02,03,15.00
2012,07,14,02,04,15.00
2012,07,14,02,05,15.00
2012,07,14,02,06,15.00
2012,07,14,02,07,15.00
2012,07,14,02,08,15.00
2012,07,14,02,09,15.00
2012,07,14,02,10,15.00
2012,07,14,02,11,15.00
2012,07,14,02,12,15.00
2012,07,14,02,13,15.00
2012,07,14,02,14,15.00
2012,07,14,02,15,15.00
2012,07,14,02,16,15.00
2012,07,14,02,17,15.00
2012,07,14,02,18,15.00
2012,07,14,02,19,15.00
2012,07,14,02,20,15.00
2012,07,14,02,21,15.00
2012,07,14,02,22,15.00
2012,07,14,02,23,15.00
2012,07,14,02,24,15.00
2012,07,14,02,25,15.00
2012,07,14,02,26,15.00
2012,07,14,02,27,15.00
2012,07,14,02,28,15.00
2012,07,14,02,29,15.10
2012,07,14,02,30,15.10
2012,07,14,02,31,15.20
2012,07,14,02,32,15.20
2012,07,14,02,33,15.20
2012,07,14,02,34,15.20
2012,07,14,02,35,15.20
2012,07,14,02,36,15.20
2012,07,14,02,37,15.20
2012,07,14,02,38,15.20
2012,07,14,02,39,15.20
2012,07,14,02,40,15.20
2012,07,14,02,41,15.20
2012,07,14,02,42,15.20
2012,07,14,02,43,15.20
2012,07,14,02,44,15.20
2012,07,14,02,45,15.10
2012,07,14,02,46,15.10
2012,07,14,02,47,15.10
2012,07,14,02,48,15.10
2012,07,14,02,49,15.10
2012,07,14,02,50,15.10
2012,07,14,02,51,15.10
2012,07,14,02,52,15.20
2012,07,14,02,53,15.20
2012,07,14,02,54,15.20
2012,07,14,02,55,15.20
2012,07,14,02,56,15.30
2012,07,14,02,57,15.30
2012,07,14,02,58,15.30
2012,07,14,02,59,15.30
2012,07,14,03,00,15.30
2012,07,14,03,01,15.30
2012,07,14,03,02,15.40
2012,07,14,03,03,15.40
2012,07,14,03,04,15.40
2012,07,14,03,05,15.40
2012,07,14,03,06,15.40
2012,07,14,03,07,15.50
2012,07,14,03,08,15.50
2012,07,14,03,09,15.50
2012,07,14,03,10,15.60
2012,07,14,03,11,15.70
2012,07,14,03,12,15.80
2012,07,14,03,13,15.80
2012,07,14,03,14,15.80
2012,07,14,03,15,15.80
2012,07,14,03,16,15.80
2012,07,14,03,17,15.80
2012,07,14,03,18,15.80
2012,07,14,03,19,15.80
2012,07,14,03,20,15.90
2012,07,14,03,21,15.90
2012,07,14,03,22,15.90
2012,07,14,03,23,15.90
2012,07,14,03,24,16.00
2012,07,14,03,25,16.10
2012,07,14,03,26,16.10
2012,07,14,03,27,16.10
2012,07,14,03,28,16.10
2012,07,14,03,29,16.20
2012,07,14,03,30,16.20
2012,07,14,03,31,16.20
2012,07,14,03,32,16.10
2012,07,14,03,33,16.10
2012,07,14,03,34,16.10
2012,07,14,03,35,16.10
2012,07,14,03,36,16.10
2012,07,14,03,37,16.10
2012,07,14,03,38,16.20
2012,07,14,03,39,16.20
2012,07,14,03,40,16.20
2012,07,14,03,41,16.20
2012,07,14,03,42,16.20
2012,07,14,03,43,16.20
2012,07,14,03,44,16.20
2012,07,14,03,45,16.20
2012,07,14,03,46,16.20
2012,07,14,03,47,16.30
2012,07,14,03,48,16.30
2012,07,14,03,49,16.30
2012,07,14,03,50,16.30
2012,07,14,03,51,16.30
2012,07,14,03,52,16.30
2012,07,14,03,53,16.40
2012,07,14,03,54,16.40
2012,07,14,03,55,16.40
2012,07,14,03,56,16.40
2012,07,14,03,57,16.40
2012,07,14,03,58,16.40
2012,07,14,03,59,16.40
2012,07,14,04,00,16.50
2012,07,14,04,01,16.50
2012,07,14,04,02,16.50
2012,07,14,04,03,16.50
2012,07,14,04,04,16.50
2012,07,14,04,05,16.50
2012,07,14,04,06,16.50
2012,07,14,04,07,16.50
2012,07,14,04,08,16.50
2012,07,14,04,09,16.50
2012,07,14,04,10,16.50
2012,07,14,04,11,16.50
2012,07,14,04,12,16.50
2012,07,14,04,13,16.40
2012,07,14,04,14,16.40
2012,07,14,04,15,16.40
2012,07,14,04,16,16.40
2012,07,14,04,17,16.40
2012,07,14,04,18,16.40
2012,07,14,04,19,16.40
2012,07,14,04,20,16.40
2012,07,14,04,21,16.40
2012,07,14,04,22,16.40
2012,07,14,04,23,16.30
2012,07,14,04,24,16.30
2012,07,14,04,25,16.30
2012,07,14,04,26,16.30
2012,07,14,04,27,16.30
2012,07,14,04,28,16.30
2012,07,14,04,29,16.30
2012,07,14,04,30,16.30
2012,07,14,04,31,16.30
2012,07,14,04,32,16.20
2012,07,14,04,33,16.20
2012,07,14,04,34,16.20
2012,07,14,04,35,16.10
2012,07,14,04,36,16.10
2012,07,14,04,37,16.10
2012,07,14,04,38,16.10
2012,07,14,04,39,16.10
2012,07,14,04,40,16.10
2012,07,14,04,41,16.10
2012,07,14,04,42,16.10
2012,07,14,04,43,16.10
2012,07,14,04,44,16.10
2012,07,14,04,45,16.10
2012,07,14,04,46,16.10
2012,07,14,04,47,16.10
2012,07,14,04,48,16.10
2012,07,14,04,49,16.10
2012,07,14,04,50,16.10
2012,07,14,04,51,16.10
2012,07,14,04,52,16.10
2012,07,14,04,53,16.20
2012,07,14,04,54,16.20
2012,07,14,04,55,16.20
2012,07,14,04,56,16.20
2012,07,14,04,57,16.20
2012,07,14,04,58,16.20
2012,07,14,04,59,16.20
2012,07,14,05,00,16.20
2012,07,14,05,01,16.20
2012,07,14,05,02,16.20
2012,07,14,05,03,16.20
2012,07,14,05,04,16.20
2012,07,14,05,05,16.20
2012,07,14,05,06,16.20
2012,07,14,05,07,16.20
2012,07,14,05,08,16.20
2012,07,14,05,09,16.20
2012,07,14,05,10,16.20
2012,07,14,05,11,16.20
2012,07,14,05,12,16.30
2012,07,14,05,13,16.30
2012,07,14,05,14,16.30
2012,07,14,05,15,16.30
2012,07,14,05,16,16.30
2012,07,14,05,17,16.30
2012,07,14,05,18,16.30
2012,07,14,05,19,16.30
2012,07,14,05,20,16.30
2012,07,14,05,21,16.30
2012,07,14,05,22,16.30
2012,07,14,05,23,16.30
2012,07,14,05,24,16.30
2012,07,14,05,25,16.30
2012,07,14,05,26,16.30
2012,07,14,05,27,16.30
2012,07,14,05,28,16.30
2012,07,14,05,29,16.30
2012,07,14,05,30,16.30
2012,07,14,05,31,16.30
2012,07,14,05,32,16.30
2012,07,14,05,33,16.30
2012,07,14,05,34,16.30
2012,07,14,05,35,16.30
2012,07,14,05,36,16.30
2012,07,14,05,37,16.30
2012,07,14,05,38,16.30
2012,07,14,05,39,16.30
2012,07,14,05,40,16.30
2012,07,14,05,41,16.30
2012,07,14,05,42,16.40
2012,07,14,05,43,16.40
2012,07,14,05,44,16.40
2012,07,14,05,45,16.40
2012,07,14,05,46,16.40
2012,07,14,05,47,16.40
2012,07,14,05,48,16.40
2012,07,14,05,49,16.50
2012,07,14,05,50,16.50
2012,07,14,05,51,16.50
2012,07,14,05,52,16.50
2012,07,14,05,53,16.40
2012,07,14,05,54,16.50
2012,07,14,05,55,16.50
2012,07,14,05,56,16.50
2012,07,14,05,57,16.50
2012,07,14,05,58,16.50
2012,07,14,05,59,16.50
2012,07,14,06,00,16.60
2012,07,14,06,01,16.60
2012,07,14,06,02,16.60
2012,07,14,06,03,16.60
2012,07,14,06,04,16.60
2012,07,14,06,05,16.60
2012,07,14,06,06,16.60
2012,07,14,06,07,16.60
2012,07,14,06,08,16.60
2012,07,14,06,09,16.60
2012,07,14,06,10,16.60
2012,07,14,06,11,16.60
2012,07,14,06,12,16.70
2012,07,14,06,13,16.70
2012,07,14,06,14,16.70
2012,07,14,06,15,16.70
2012,07,14,06,16,16.60
2012,07,14,06,17,16.60
2012,07,14,06,18,16.60
2012,07,14,06,19,16.60
2012,07,14,06,20,16.60
2012,07,14,06,21,16.60
2012,07,14,06,22,16.60
2012,07,14,06,23,16.60
2012,07,14,06,24,16.60
2012,07,14,06,25,16.60
2012,07,14,06,26,16.60
2012,07,14,06,27,16.60
2012,07,14,06,28,16.60
2012,07,14,06,29,16.60
2012,07,14,06,30,16.60
2012,07,14,06,31,16.50
2012,07,14,06,32,16.50
2012,07,14,06,33,16.40
2012,07,14,06,34,16.40
2012,07,14,06,35,16.30
2012,07,14,06,36,16.30
2012,07,14,06,37,16.20
2012,07,14,06,38,16.10
2012,07,14,06,39,16.10
2012,07,14,06,40,16.00
2012,07,14,06,41,16.00
2012,07,14,06,42,15.90
2012,07,14,06,43,15.80
2012,07,14,06,44,15.80
2012,07,14,06,45,15.80
2012,07,14,06,46,15.70
2012,07,14,06,47,15.70
2012,07,14,06,48,15.70
2012,07,14,06,49,15.60
2012,07,14,06,50,15.60
2012,07,14,06,51,15.60
2012,07,14,06,52,15.50
2012,07,14,06,53,15.50
2012,07,14,06,54,15.50
2012,07,14,06,55,15.50
2012,07,14,06,56,15.50
2012,07,14,06,57,15.50
2012,07,14,06,58,15.50
2012,07,14,06,59,15.50
2012,07,14,07,00,15.50
2012,07,14,07,01,15.50
2012,07,14,07,02,15.50
2012,07,14,07,03,15.50
2012,07,14,07,04,15.60
2012,07,14,07,05,15.60
2012,07,14,07,06,15.60
2012,07,14,07,07,15.60
2012,07,14,07,08,15.60
2012,07,14,07,09,15.60
2012,07,14,07,10,15.70
2012,07,14,07,11,15.70
2012,07,14,07,12,15.70
2012,07,14,07,13,15.70
2012,07,14,07,14,15.80
2012,07,14,07,15,15.80
2012,07,14,07,16,15.80
2012,07,14,07,17,15.80
2012,07,14,07,18,15.80
2012,07,14,07,19,15.90
2012,07,14,07,20,15.90
2012,07,14,07,21,15.90
2012,07,14,07,22,15.90
2012,07,14,07,23,16.00
2012,07,14,07,24,16.00
2012,07,14,07,25,16.00
2012,07,14,07,26,16.10
2012,07,14,07,27,16.10
2012,07,14,07,28,16.20
2012,07,14,07,29,16.20
2012,07,14,07,30,16.20
2012,07,14,07,31,16.30
2012,07,14,07,32,16.30
2012,07,14,07,33,16.30
2012,07,14,07,34,16.40
2012,07,14,07,35,16.40
2012,07,14,07,36,16.50
2012,07,14,07,37,16.50
2012,07,14,07,38,16.60
2012,07,14,07,39,16.60
2012,07,14,07,40,16.60
2012,07,14,07,41,16.70
2012,07,14,07,42,16.70
2012,07,14,07,43,16.80
2012,07,14,07,44,16.80
2012,07,14,07,45,16.80
2012,07,14,07,46,16.90
2012,07,14,07,47,16.90
2012,07,14,07,48,16.90
2012,07,14,07,49,17.00
2012,07,14,07,50,17.10
2012,07,14,07,51,17.10
2012,07,14,07,52,17.20
2012,07,14,07,53,17.20
2012,07,14,07,54,17.30
2012,07,14,07,55,17.30
2012,07,14,07,56,17.30
2012,07,14,07,57,17.40
2012,07,14,07,58,17.40
2012,07,14,07,59,17.50
2012,07,14,08,00,17.50
2012,07,14,08,01,17.50
2012,07,14,08,02,17.60
2012,07,14,08,03,17.60
2012,07,14,08,04,17.60
2012,07,14,08,05,17.70
2012,07,14,08,06,17.70
2012,07,14,08,07,17.70
2012,07,14,08,08,17.80
2012,07,14,08,09,17.80
2012,07,14,08,10,17.80
2012,07,14,08,11,17.90
2012,07,14,08,12,18.00
2012,07,14,08,13,18.00
2012,07,14,08,14,18.10
2012,07,14,08,15,18.10
2012,07,14,08,16,18.20
2012,07,14,08,17,18.30
2012,07,14,08,18,18.30
2012,07,14,08,19,18.40
2012,07,14,08,20,18.40
2012,07,14,08,21,18.50
2012,07,14,08,22,18.60
2012,07,14,08,23,18.60
2012,07,14,08,24,18.70
2012,07,14,08,25,18.70
2012,07,14,08,26,18.80
2012,07,14,08,27,18.90
2012,07,14,08,28,19.00
2012,07,14,08,29,19.10
2012,07,14,08,30,19.20
2012,07,14,08,31,19.30
2012,07,14,08,32,19.40
2012,07,14,08,33,19.50
2012,07,14,08,34,19.60
2012,07,14,08,35,19.70
2012,07,14,08,36,19.80
2012,07,14,08,37,19.90
2012,07,14,08,38,20.00
2012,07,14,08,39,20.10
2012,07,14,08,40,20.20
2012,07,14,08,41,20.30
2012,07,14,08,42,20.40
2012,07,14,08,43,20.50
2012,07,14,08,44,20.60
2012,07,14,08,45,20.60
2012,07,14,08,46,20.60
2012,07,14,08,47,20.60
2012,07,14,08,48,20.60
2012,07,14,08,49,20.60
2012,07,14,08,50,20.50
2012,07,14,08,51,20.50
2012,07,14,08,52,20.40
2012,07,14,08,53,20.40
2012,07,14,08,54,20.30
2012,07,14,08,55,20.30
2012,07,14,08,56,20.30
2012,07,14,08,57,20.30
2012,07,14,08,58,20.30
2012,07,14,08,59,20.30
2012,07,14,09,00,20.30
2012,07,14,09,01,20.30
2012,07,14,09,02,20.30
2012,07,14,09,03,20.40
2012,07,14,09,04,20.40
2012,07,14,09,05,20.40
2012,07,14,09,06,20.40
2012,07,14,09,07,20.40
2012,07,14,09,08,20.50
2012,07,14,09,09,20.50
2012,07,14,09,10,20.50
2012,07,14,09,11,20.50
2012,07,14,09,12,20.60
2012,07,14,09,13,20.70
2012,07,14,09,14,20.70
2012,07,14,09,15,20.80
2012,07,14,09,16,20.90
2012,07,14,09,17,21.00
2012,07,14,09,18,21.00
2012,07,14,09,19,21.10
2012,07,14,09,20,21.10
2012,07,14,09,21,21.20
2012,07,14,09,22,21.20
2012,07,14,09,23,21.20
2012,07,14,09,24,21.20
2012,07,14,09,25,21.30
2012,07,14,09,26,21.30
2012,07,14,09,27,21.30
2012,07,14,09,28,21.30
2012,07,14,09,29,21.40
2012,07,14,09,30,21.40
2012,07,14,09,31,21.40
2012,07,14,09,32,21.50
2012,07,14,09,33,21.50
2012,07,14,09,34,21.60
2012,07,14,09,35,21.60
2012,07,14,09,36,21.70
2012,07,14,09,37,21.70
2012,07,14,09,38,21.80
2012,07,14,09,39,21.80
2012,07,14,09,40,21.90
2012,07,14,09,41,22.00
2012,07,14,09,42,22.10
2012,07,14,09,43,22.10
2012,07,14,09,44,22.20
2012,07,14,09,45,22.30
2012,07,14,09,46,22.40
2012,07,14,09,47,22.50
2012,07,14,09,48,22.60
2012,07,14,09,49,22.60
2012,07,14,09,50,22.70
2012,07,14,09,51,22.70
2012,07,14,09,52,22.70
2012,07,14,09,53,22.80
2012,07,14,09,54,22.80
2012,07,14,09,55,22.80
2012,07,14,09,56,22.90
2012,07,14,09,57,22.90
2012,07,14,09,58,22.90
2012,07,14,09,59,22.90
2012,07,14,10,00,22.90
2012,07,14,10,01,22.90
2012,07,14,10,02,22.80
2012,07,14,10,03,22.80
2012,07,14,10,04,22.80
2012,07,14,10,05,22.80
2012,07,14,10,06,22.80
2012,07,14,10,07,22.80
2012,07,14,10,08,22.80
2012,07,14,10,09,22.80
2012,07,14,10,10,22.70
2012,07,14,10,11,22.60
2012,07,14,10,12,22.60
2012,07,14,10,13,22.60
2012,07,14,10,14,22.60
2012,07,14,10,15,22.60
2012,07,14,10,16,22.60
2012,07,14,10,17,22.60
2012,07,14,10,18,22.60
2012,07,14,10,19,22.60
2012,07,14,10,20,22.60
2012,07,14,10,21,22.70
2012,07,14,10,22,22.70
2012,07,14,10,23,22.80
2012,07,14,10,24,22.80
2012,07,14,10,25,22.80
2012,07,14,10,26,22.90
2012,07,14,10,27,23.00
2012,07,14,10,28,23.00
2012,07,14,10,29,23.10
2012,07,14,10,30,23.10
2012,07,14,10,31,23.20
2012,07,14,10,32,23.20
2012,07,14,10,33,23.30
2012,07,14,10,34,23.30
2012,07,14,10,35,23.40
2012,07,14,10,36,23.40
2012,07,14,10,37,23.40
2012,07,14,10,38,23.40
2012,07,14,10,39,23.40
2012,07,14,10,40,23.30
2012,07,14,10,41,23.30
2012,07,14,10,42,23.20
2012,07,14,10,43,23.10
2012,07,14,10,44,23.10
2012,07,14,10,45,23.10
2012,07,14,10,46,23.10
2012,07,14,10,47,23.10
2012,07,14,10,48,23.10
2012,07,14,10,49,23.10
2012,07,14,10,50,23.20
2012,07,14,10,51,23.20
2012,07,14,10,52,23.30
2012,07,14,10,53,23.40
2012,07,14,10,54,23.40
2012,07,14,10,55,23.50
2012,07,14,10,56,23.60
2012,07,14,10,57,23.70
2012,07,14,10,58,23.80
2012,07,14,10,59,23.80
2012,07,14,11,00,23.90
2012,07,14,11,01,23.90
2012,07,14,11,02,24.00
2012,07,14,11,03,24.00
2012,07,14,11,04,24.10
2012,07,14,11,05,24.10
2012,07,14,11,06,24.20
2012,07,14,11,07,24.10
2012,07,14,11,08,24.00
2012,07,14,11,09,24.00
2012,07,14,11,10,23.90
2012,07,14,11,11,23.90
2012,07,14,11,12,23.90
2012,07,14,11,13,23.80
2012,07,14,11,14,23.80
2012,07,14,11,15,23.80
2012,07,14,11,16,23.70
2012,07,14,11,17,23.70
2012,07,14,11,18,23.60
2012,07,14,11,19,23.60
2012,07,14,11,20,23.50
2012,07,14,11,21,23.50
2012,07,14,11,22,23.50
2012,07,14,11,23,23.50
2012,07,14,11,24,23.40
2012,07,14,11,25,23.40
2012,07,14,11,26,23.30
2012,07,14,11,27,23.30
2012,07,14,11,28,23.30
2012,07,14,11,29,23.30
2012,07,14,11,30,23.30
2012,07,14,11,31,23.40
2012,07,14,11,32,23.40
2012,07,14,11,33,23.40
2012,07,14,11,34,23.50
2012,07,14,11,35,23.50
2012,07,14,11,36,23.60
2012,07,14,11,37,23.60
2012,07,14,11,38,23.60
2012,07,14,11,39,23.60
2012,07,14,11,40,23.60
2012,07,14,11,41,23.70
2012,07,14,11,42,23.70
2012,07,14,11,43,23.70
2012,07,14,11,44,23.70
2012,07,14,11,45,23.70
2012,07,14,11,46,23.70
2012,07,14,11,47,23.80
2012,07,14,11,48,23.80
2012,07,14,11,49,23.80
2012,07,14,11,50,23.80
2012,07,14,11,51,23.90
2012,07,14,11,52,24.00
2012,07,14,11,53,24.00
2012,07,14,11,54,24.10
2012,07,14,11,55,24.10
2012,07,14,11,56,24.00
2012,07,14,11,57,24.00
2012,07,14,11,58,23.90
2012,07,14,11,59,23.80
2012,07,14,12,00,23.80
2012,07,14,12,01,23.70
2012,07,14,12,02,23.70
2012,07,14,12,03,23.70
2012,07,14,12,04,23.70
2012,07,14,12,05,23.70
2012,07,14,12,06,23.80
2012,07,14,12,07,23.80
2012,07,14,12,08,23.90
2012,07,14,12,09,23.90
2012,07,14,12,10,23.90
2012,07,14,12,11,23.90
2012,07,14,12,12,23.90
2012,07,14,12,13,23.90
2012,07,14,12,14,23.80
2012,07,14,12,15,23.80
2012,07,14,12,16,23.80
2012,07,14,12,17,23.80
2012,07,14,12,18,23.90
2012,07,14,12,19,23.90
2012,07,14,12,20,23.90
2012,07,14,12,21,23.90
2012,07,14,12,22,24.00
2012,07,14,12,23,24.00
2012,07,14,12,24,24.00
2012,07,14,12,25,24.10
2012,07,14,12,26,24.10
2012,07,14,12,27,24.10
2012,07,14,12,28,24.10
2012,07,14,12,29,24.10
2012,07,14,12,30,24.10
2012,07,14,12,31,24.10
2012,07,14,12,32,24.10
2012,07,14,12,33,24.10
2012,07,14,12,34,24.10
2012,07,14,12,35,24.20
2012,07,14,12,36,24.20
2012,07,14,12,37,24.30
2012,07,14,12,38,24.30
2012,07,14,12,39,24.30
2012,07,14,12,40,24.30
2012,07,14,12,41,24.20
2012,07,14,12,42,24.20
2012,07,14,12,43,24.20
2012,07,14,12,44,24.20
2012,07,14,12,45,24.20
2012,07,14,12,46,24.30
2012,07,14,12,47,24.40
2012,07,14,12,48,24.40
2012,07,14,12,49,24.50
2012,07,14,12,50,24.60
2012,07,14,12,51,24.60
2012,07,14,12,52,24.70
2012,07,14,12,53,24.80
2012,07,14,12,54,24.80
2012,07,14,12,55,24.80
2012,07,14,12,56,24.80
2012,07,14,12,57,24.80
2012,07,14,12,58,24.80
2012,07,14,12,59,24.80
2012,07,14,13,00,24.80
2012,07,14,13,01,24.80
2012,07,14,13,02,24.90
2012,07,14,13,03,24.90
2012,07,14,13,04,24.90
2012,07,14,13,05,24.80
2012,07,14,13,06,24.80
2012,07,14,13,07,24.80
2012,07,14,13,08,24.80
2012,07,14,13,09,24.80
2012,07,14,13,10,24.80
2012,07,14,13,11,24.70
2012,07,14,13,12,24.60
2012,07,14,13,13,24.50
2012,07,14,13,14,24.50
2012,07,14,13,15,24.60
2012,07,14,13,16,24.60
2012,07,14,13,17,24.70
2012,07,14,13,18,24.80
2012,07,14,13,19,24.80
2012,07,14,13,20,24.80
2012,07,14,13,21,24.90
2012,07,14,13,22,25.00
2012,07,14,13,23,25.00
2012,07,14,13,24,25.10
2012,07,14,13,25,25.10
2012,07,14,13,26,25.20
2012,07,14,13,27,25.30
2012,07,14,13,28,25.40
2012,07,14,13,29,25.40
2012,07,14,13,30,25.50
2012,07,14,13,31,25.60
2012,07,14,13,32,25.70
2012,07,14,13,33,25.70
2012,07,14,13,34,25.70
2012,07,14,13,35,25.70
2012,07,14,13,36,25.80
2012,07,14,13,37,25.80
2012,07,14,13,38,25.90
2012,07,14,13,39,25.90
2012,07,14,13,40,25.90
2012,07,14,13,41,25.90
2012,07,14,13,42,26.00
2012,07,14,13,43,25.90
2012,07,14,13,44,25.90
2012,07,14,13,45,25.90
2012,07,14,13,46,25.90
2012,07,14,13,47,25.90
2012,07,14,13,48,25.90
2012,07,14,13,49,25.90
2012,07,14,13,50,26.00
2012,07,14,13,51,26.00
2012,07,14,13,52,26.10
2012,07,14,13,53,26.20
2012,07,14,13,54,26.20
2012,07,14,13,55,26.30
2012,07,14,13,56,26.40
2012,07,14,13,57,26.40
2012,07,14,13,58,26.50
2012,07,14,13,59,26.50
2012,07,14,14,00,26.60
2012,07,14,14,01,26.50
2012,07,14,14,02,26.40
2012,07,14,14,03,26.40
2012,07,14,14,04,26.30
2012,07,14,14,05,26.30
2012,07,14,14,06,26.30
2012,07,14,14,07,26.30
2012,07,14,14,08,26.30
2012,07,14,14,09,26.40
2012,07,14,14,10,26.30
2012,07,14,14,11,26.30
2012,07,14,14,12,26.30
2012,07,14,14,13,26.30
2012,07,14,14,14,26.30
2012,07,14,14,15,26.20
2012,07,14,14,16,26.20
2012,07,14,14,17,26.20
2012,07,14,14,18,26.20
2012,07,14,14,19,26.30
2012,07,14,14,20,26.40
2012,07,14,14,21,26.50
2012,07,14,14,22,26.60
2012,07,14,14,23,26.70
2012,07,14,14,24,26.80
2012,07,14,14,25,26.90
2012,07,14,14,26,27.00
2012,07,14,14,27,27.10
2012,07,14,14,28,27.10
2012,07,14,14,29,27.10
2012,07,14,14,30,27.10
2012,07,14,14,31,27.20
2012,07,14,14,32,27.20
2012,07,14,14,33,27.20
2012,07,14,14,34,27.20
2012,07,14,14,35,27.20
2012,07,14,14,36,27.10
2012,07,14,14,37,27.10
2012,07,14,14,38,27.10
2012,07,14,14,39,27.10
2012,07,14,14,40,27.00
2012,07,14,14,41,27.00
2012,07,14,14,42,27.00
2012,07,14,14,43,26.90
2012,07,14,14,44,27.00
2012,07,14,14,45,27.00
2012,07,14,14,46,27.10
2012,07,14,14,47,27.10
2012,07,14,14,48,27.10
2012,07,14,14,49,27.10
2012,07,14,14,50,27.10
2012,07,14,14,51,27.00
2012,07,14,14,52,27.00
2012,07,14,14,53,26.90
2012,07,14,14,54,26.90
2012,07,14,14,55,26.90
2012,07,14,14,56,26.80
2012,07,14,14,57,26.70
2012,07,14,14,58,26.70
2012,07,14,14,59,26.70
2012,07,14,15,00,26.60
2012,07,14,15,01,26.60
2012,07,14,15,02,26.60
2012,07,14,15,03,26.50
2012,07,14,15,04,26.50
2012,07,14,15,05,26.40
2012,07,14,15,06,26.30
2012,07,14,15,07,26.30
2012,07,14,15,08,26.30
2012,07,14,15,09,26.30
2012,07,14,15,10,26.40
2012,07,14,15,11,26.40
2012,07,14,15,12,26.50
2012,07,14,15,13,26.50
2012,07,14,15,14,26.50
2012,07,14,15,15,26.50
2012,07,14,15,16,26.50
2012,07,14,15,17,26.50
2012,07,14,15,18,26.40
2012,07,14,15,19,26.30
2012,07,14,15,20,26.20
2012,07,14,15,21,26.10
2012,07,14,15,22,26.00
2012,07,14,15,23,25.90
2012,07,14,15,24,25.90
2012,07,14,15,25,25.80
2012,07,14,15,26,25.80
2012,07,14,15,27,25.70
2012,07,14,15,28,25.70
2012,07,14,15,29,25.70
2012,07,14,15,30,25.70
2012,07,14,15,31,25.60
2012,07,14,15,32,25.70
2012,07,14,15,33,25.70
2012,07,14,15,34,25.70
2012,07,14,15,35,25.70
2012,07,14,15,36,25.70
2012,07,14,15,37,25.70
2012,07,14,15,38,25.70
2012,07,14,15,39,25.70
2012,07,14,15,40,25.80
2012,07,14,15,41,25.70
2012,07,14,15,42,25.70
2012,07,14,15,43,25.70
2012,07,14,15,44,25.70
2012,07,14,15,45,25.80
2012,07,14,15,46,25.80
2012,07,14,15,47,25.90
2012,07,14,15,48,25.90
2012,07,14,15,49,26.00
2012,07,14,15,50,26.10
2012,07,14,15,51,26.10
2012,07,14,15,52,26.10
2012,07,14,15,53,26.10
2012,07,14,15,54,26.10
2012,07,14,15,55,26.10
2012,07,14,15,56,26.10
2012,07,14,15,57,26.20
2012,07,14,15,58,26.20
2012,07,14,15,59,26.30
2012,07,14,16,00,26.40
2012,07,14,16,01,26.50
2012,07,14,16,02,26.60
2012,07,14,16,03,26.70
2012,07,14,16,04,26.70
2012,07,14,16,05,26.70
2012,07,14,16,06,26.70
2012,07,14,16,07,26.70
2012,07,14,16,08,26.60
2012,07,14,16,09,26.50
2012,07,14,16,10,26.40
2012,07,14,16,11,26.40
2012,07,14,16,12,26.40
2012,07,14,16,13,26.40
2012,07,14,16,14,26.50
2012,07,14,16,15,26.60
2012,07,14,16,16,26.70
2012,07,14,16,17,26.80
2012,07,14,16,18,26.80
2012,07,14,16,19,26.90
2012,07,14,16,20,26.90
2012,07,14,16,21,27.00
2012,07,14,16,22,27.10
2012,07,14,16,23,27.20
2012,07,14,16,24,27.20
2012,07,14,16,25,27.30
2012,07,14,16,26,27.40
2012,07,14,16,27,27.50
2012,07,14,16,28,27.60
2012,07,14,16,29,27.60
2012,07,14,16,30,27.70
2012,07,14,16,31,27.60
2012,07,14,16,32,27.50
2012,07,14,16,33,27.50
2012,07,14,16,34,27.40
2012,07,14,16,35,27.30
2012,07,14,16,36,27.20
2012,07,14,16,37,27.20
2012,07,14,16,38,27.10
2012,07,14,16,39,27.00
2012,07,14,16,40,26.90
2012,07,14,16,41,26.80
2012,07,14,16,42,26.70
2012,07,14,16,43,26.70
2012,07,14,16,44,26.70
2012,07,14,16,45,26.60
2012,07,14,16,46,26.70
2012,07,14,16,47,26.70
2012,07,14,16,48,26.70
2012,07,14,16,49,26.80
2012,07,14,16,50,26.80
2012,07,14,16,51,26.70
2012,07,14,16,52,26.70
2012,07,14,16,53,26.70
2012,07,14,16,54,26.70
2012,07,14,16,55,26.70
2012,07,14,16,56,26.60
2012,07,14,16,57,26.60
2012,07,14,16,58,26.60
2012,07,14,16,59,26.50
2012,07,14,17,00,26.50
2012,07,14,17,01,26.40
2012,07,14,17,02,26.40
2012,07,14,17,03,26.30
2012,07,14,17,04,26.30
2012,07,14,17,05,26.30
2012,07,14,17,06,26.30
2012,07,14,17,07,26.30
2012,07,14,17,08,26.30
2012,07,14,17,09,26.30
2012,07,14,17,10,26.30
2012,07,14,17,11,26.30
2012,07,14,17,12,26.30
2012,07,14,17,13,26.30
2012,07,14,17,14,26.30
2012,07,14,17,15,26.30
2012,07,14,17,16,26.30
2012,07,14,17,17,26.30
2012,07,14,17,18,26.40
2012,07,14,17,19,26.40